Project,Study,Ord_Occ,Event_Num,Cast_ID,Date_Time_UTC,Date_Time_PST,Lat_Dec,Lon_Dec,Sta_ID,Line,Sta,Depth,Pressure,PrQ,Temp1,Temp1Q,Temp2,Temp2Q,TempAve,Salt1,Salt1Q,Salt1_Corr,Salt2,Salt2Q,Salt2_Corr,SaltAve_Corr,Ox1,Ox1Q,Ox1_CruiseCorr,Ox1_StaCorr,Ox2,Ox2Q,Ox2_CruiseCorr,Ox2_StaCorr,OxAve_StaCorr,Ox1uM,Ox1uM_CruiseCorr,Ox1uM_StaCorr,Ox2uM,Ox2uM_CruiseCorr,Ox2uM_StaCorr,OxAveuM_StaCorr,FluorV,FluorQ,EstChl_CruiseCorr,EstChl_StaCorr,ISUSV,ISUSQ,EstNO3_CruiseCorr,EstNO3_StaCorr,SigThetaTS1,SigThetaTS1Q,SigThetaTS2,SigThetaTS2Q,BAT,XMiss,TransQ,pH,pHQ,SPAR,SPARQ,PAR,PARQ,PoT1,PoT2,DynHt,SVA,OxSat1,OxSat2,BTL_Depth,BTL_Temp,SaltB,OxB,OxBuM,Chl-a,Phaeo,NO3,NO2,NH4,PO4,SIL
CalCOFI,2007SR,043,45,2007_043d,21-Jul-2020 03:41:59,20-Jul-2020 19:41:59,32.32284,-121.71328,086.7 080.0,086.7,080.0,3.000,3.021,,17.8938,,17.8935,,17.8937,33.1865,,33.1867,33.1907,,33.1923,33.1895,5.3601,,5.5831,5.5931,4.1702,,6.0143,4.3896,4.9914,233.794,243.5695,244.9461,181.891,406.2819,191.6032,218.2747,0.0390,,0.0340,0.0789,0.0792,,0.0000,,23.9095,,23.9129,,0.7226,83.4768,,8.133,,1.9043E+00,,3.2999E-01,,17.8933,17.8930,0.0091,,98.517,76.648,3,17.869,33.2023,5.567,243.09,0.093,0.065,0.08,0.00,0.17,0.30,1.02
CalCOFI,2007SR,043,45,2007_043d,21-Jul-2020 03:42:11,20-Jul-2020 19:42:11,32.32284,-121.71328,086.7 080.0,086.7,080.0,4.000,4.028,,17.8937,,17.8932,,17.8935,33.1913,,33.1915,33.1914,,33.1930,33.1923,5.3615,,5.5845,5.5946,4.1696,,6.0129,4.3883,4.9915,233.851,243.6290,245.0061,181.865,406.4214,191.5432,218.2747,0.0394,,0.0387,0.0830,0.0352,,0.0000,,23.9133,,23.9135,,0.6936,84.0790,,8.132,,1.9043E+00,,2.5418E-01,,17.8930,17.8925,0.0176,,98.544,76.637,,,,,,,,,,,,
CalCOFI,2007SR,043,45,2007_043d,21-Jul-2020 03:42:12,20-Jul-2020 19:42:12,32.32284,-121.71328,086.7 080.0,086.7,080.0,5.000,5.035,,17.8937,,17.8936,,17.8937,33.1911,,33.1913,33.1913,,33.1929,33.1921,5.3546,,5.5773,5.5873,4.1731,,6.0212,4.3961,4.9917,233.552,243.3168,244.6913,182.018,405.6900,191.8967,218.2940,0.0390,,0.0340,0.0789,0.0082,,0.0000,,23.9132,,23.9134,,0.6959,84.0322,,8.132,,1.9043E+00,,2.3445E-01,,17.8929,17.8927,0.0214,,98.418,76.702,,,,,,,,,,,,
CalCOFI,2007SR,043,45,2007_043d,21-Jul-2020 03:42:14,20-Jul-2020 19:42:14,32.32284,-121.71328,086.7 080.0,086.7,080.0,6.000,6.042,,17.8935,,17.8933,,17.8934,33.1914,,33.1916,33.1919,,33.1935,33.1926,5.3478,,5.5702,5.5802,4.1774,,6.0315,4.4056,4.9929,233.256,243.0078,244.3796,182.208,404.9661,192.3358,218.3577,0.0407,,0.0540,0.0962,0.0003,,0.0000,,23.9135,,23.9139,,0.6968,84.0124,,8.132,,1.9043E+00,,2.1374E-01,,17.8925,17.8922,0.0254,,98.293,76.781,,,,,,,,,,,,
CalCOFI,2007SR,043,45,2007_043d,21-Jul-2020 03:42:16,20-Jul-2020 19:42:16,32.32284,-121.71328,086.7 080.0,086.7,080.0,7.000,7.049,,17.8929,,17.8922,,17.8926,33.1925,,33.1927,33.1935,,33.1951,33.1939,5.3538,,5.5765,5.5865,4.1800,,6.0377,4.4114,4.9990,233.514,243.2772,244.6513,182.319,405.5971,192.5923,218.6218,0.0398,,0.0434,0.0871,-99.0,,-99.0,,23.9145,,23.9155,,0.6957,84.0354,,8.133,,1.9043E+00,,1.9086E-01,,17.8917,17.8910,0.0294,,98.401,76.828,,,,,,,,,,,,
CalCOFI,2007SR,043,45,2007_043d,21-Jul-2020 03:42:17,20-Jul-2020 19:42:17,32.32284,-121.71328,086.7 080.0,086.7,080.0,8.000,8.057,,17.8916,,17.8911,,17.8914,33.1939,,33.1941,33.1947,,33.1963,33.1952,5.3528,,5.5754,5.5855,4.1772,,6.0310,4.4052,4.9954,233.471,243.2323,244.6060,182.198,405.4919,192.3127,218.4594,0.0391,,0.0352,0.0799,-99.0,,-99.0,,23.9160,,23.9167,,0.6957,84.0364,,8.132,,1.9043E+00,,1.8511E-01,,17.8903,17.8897,0.0334,,98.382,76.775,,,,,,,,,,,,
CalCOFI,2007SR,043,45,2007_043d,21-Jul-2020 03:42:20,20-Jul-2020 19:42:20,32.32284,-121.71328,086.7 080.0,086.7,080.0,9.000,9.064,,17.8903,,17.8905,,17.8904,33.1954,,33.1956,33.1954,,33.1970,33.1963,5.3493,,5.5718,5.5818,4.1804,,6.0387,4.4123,4.9971,233.321,243.0757,244.4480,182.337,405.1250,192.6339,218.5410,0.0405,,0.0516,0.0942,-99.0,,-99.0,,23.9175,,23.9174,,0.6963,84.0238,,8.131,,1.9043E+00,,1.6986E-01,,17.8888,17.8890,0.0374,,98.317,76.834,,,,,,,,,,,,
CalCOFI,2007SR,043,45,2007_043d,21-Jul-2020 03:42:23,20-Jul-2020 19:42:23,32.32284,-121.71328,086.7 080.0,086.7,080.0,10.000,10.071,,17.8904,,17.8908,,17.8906,33.1948,,33.1950,33.1944,,33.1960,33.1955,5.3489,,5.5714,5.5814,4.1827,,6.0442,4.4174,4.9994,233.303,243.0569,244.4291,182.434,405.0810,192.8580,218.6436,0.0386,,0.0293,0.0748,0.0001,,0.0000,,23.9170,,23.9167,,0.6959,84.0312,,8.131,,1.9043E+00,,1.6071E-01,,17.8887,17.8891,0.0414,,98.310,76.875,,,,,,,,,,,,
CalCOFI,2007SR,043,45,2007_043d,21-Jul-2020 03:42:24,20-Jul-2020 19:42:24,32.32284,-121.71328,086.7 080.0,086.7,080.0,11.000,11.078,,17.8892,,17.8856,,17.8874,33.1947,,33.1949,33.1961,,33.1977,33.1963,5.3474,,5.5698,5.5798,4.1816,,6.0415,4.4150,4.9974,233.238,242.9890,244.3606,182.387,404.9220,192.7494,218.5550,0.0395,,0.0399,0.0840,0.0010,,0.0000,,23.9173,,23.9192,,0.6992,83.9623,,8.131,,1.9043E+00,,1.5449E-01,,17.8874,17.8837,0.0455,,98.280,76.848,11,17.840,33.2055,5.558,242.69,0.124,0.007,0.0,0.00,0.16,0.29,0.99
CalCOFI,2007SR,043,45,2007_043d,21-Jul-2020 03:42:26,20-Jul-2020 19:42:26,32.32284,-121.71328,086.7 080.0,086.7,080.0,12.000,12.085,,17.8852,,17.8882,,17.8867,33.1960,,33.1962,33.1955,,33.1971,33.1967,5.3556,,5.5784,5.5884,4.1839,,6.0470,4.4201,5.0043,233.593,243.3596,244.7345,182.489,405.7903,192.9851,218.8598,0.0398,,0.0434,0.0871,0.0041,,0.0000,,23.9193,,23.9182,,0.6953,84.0447,,8.132,,1.9043E+00,,1.4657E-01,,17.8831,17.8861,0.0495,,98.422,76.894,,,,,,,,,,,,
CalCOFI,2007SR,043,45,2007_043d,21-Jul-2020 03:42:28,20-Jul-2020 19:42:28,32.32284,-121.71328,086.7 080.0,086.7,080.0,13.000,13.092,,17.8652,,17.8609,,17.8631,33.2031,,33.2033,33.2051,,33.2067,33.2050,5.3419,,5.5641,5.5740,4.1857,,6.0513,4.4241,4.9991,232.992,242.7322,244.1016,182.566,404.3204,193.1631,218.6324,0.0402,,0.0481,0.0912,0.0106,,0.0000,,23.9296,,23.9322,,0.6954,84.0431,,8.132,,1.9043E+00,,1.3678E-01,,17.8630,17.8587,0.0535,,98.138,76.892,,,,,,,,,,,,
CalCOFI,2007SR,043,45,2007_043d,21-Jul-2020 03:42:30,20-Jul-2020 19:42:30,32.32284,-121.71328,086.7 080.0,086.7,080.0,14.000,14.099,,17.8646,,17.8572,,17.8609,33.2030,,33.2032,33.2062,,33.2078,33.2055,5.3381,,5.5601,5.5701,4.1871,,6.0547,4.4272,4.9987,232.828,242.5610,243.9289,182.625,403.9192,193.2994,218.6142,0.0413,,0.0610,0.1023,0.0199,,0.0000,,23.9297,,23.9339,,0.6964,84.0202,,8.132,,1.9043E+00,,1.3047E-01,,17.8623,17.8548,0.0575,,98.067,76.913,,,,,,,,,,,,
CalCOFI,2007SR,043,45,2007_043d,21-Jul-2020 03:42:32,20-Jul-2020 19:42:32,32.32284,-121.71328,086.7 080.0,086.7,080.0,15.000,15.106,,17.7206,,17.7953,,17.7580,33.2454,,33.2456,33.2239,,33.2255,33.2356,5.3701,,5.5935,5.6036,4.1971,,6.0785,4.4495,5.0266,234.206,243.9995,245.3799,183.055,407.2896,194.2931,219.8365,0.0402,,0.0481,0.0912,0.0295,,0.0000,,23.9970,,23.9625,,0.6992,83.9628,,8.133,,1.9043E+00,,1.2488E-01,,17.7181,17.7927,0.0615,,98.409,77.013,,,,,,,,,,,,
CalCOFI,2007SR,043,45,2007_043d,21-Jul-2020 03:42:34,20-Jul-2020 19:42:34,32.32284,-121.71328,086.7 080.0,086.7,080.0,16.000,16.113,,17.5908,,17.5929,,17.5919,33.2512,,33.2514,33.2445,,33.2461,33.2488,5.3910,,5.6154,5.6255,4.2079,,6.1043,4.4735,5.0495,235.111,244.9443,246.3329,183.517,409.5031,195.3607,220.8468,0.0416,,0.0646,0.1053,0.0372,,0.0000,,24.0327,,24.0271,,0.7010,83.9244,,8.137,,1.9043E+00,,1.1757E-01,,17.5882,17.5902,0.0654,,98.552,76.924,,,,,,,,,,,,
CalCOFI,2007SR,043,45,2007_043d,21-Jul-2020 03:42:36,20-Jul-2020 19:42:36,32.32284,-121.71328,086.7 080.0,086.7,080.0,17.000,17.120,,17.5186,,17.5573,,17.5380,33.2397,,33.2399,33.2431,,33.2447,33.2423,5.3848,,5.6089,5.6190,4.2151,,6.1215,4.4895,5.0543,234.838,244.6593,246.0455,183.830,408.8354,196.0840,221.0648,0.0432,,0.0833,0.1213,0.0504,,0.0000,,24.0413,,24.0346,,0.7008,83.9289,,8.138,,1.9043E+00,,1.1138E-01,,17.5157,17.5544,0.0693,,98.295,77.003,,,,,,,,,,,,
CalCOFI,2007SR,043,45,2007_043d,21-Jul-2020 03:42:39,20-Jul-2020 19:42:39,32.32284,-121.71328,086.7 080.0,086.7,080.0,18.000,18.128,,17.4720,,17.4732,,17.4726,33.2376,,33.2378,33.2427,,33.2443,33.2411,5.4145,,5.6399,5.6501,4.2241,,6.1430,4.5096,5.0799,236.134,246.0122,247.4102,184.216,412.0052,196.9760,222.1931,0.0455,,0.1104,0.1439,0.0588,,0.0000,,24.0508,,24.0545,,0.7066,83.8071,,8.138,,1.9043E+00,,1.0598E-01,,17.4690,17.4702,0.0732,,98.749,77.042,,,,,,,,,,,,
CalCOFI,2007SR,043,45,2007_043d,21-Jul-2020 03:42:40,20-Jul-2020 19:42:40,32.32284,-121.71328,086.7 080.0,086.7,080.0,19.000,19.135,,17.2896,,17.2834,,17.2865,33.2217,,33.2219,33.2233,,33.2249,33.2234,5.4397,,5.6662,5.6765,4.2411,,6.1836,4.5474,5.1120,237.222,247.1479,248.5558,184.953,414.6663,198.6790,223.6174,0.0464,,0.1209,0.1526,0.0621,,0.0000,,24.0822,,24.0848,,0.7097,83.7412,,8.138,,1.9043E+00,,1.0350E-01,,17.2865,17.2803,0.0770,,98.851,77.063,,,,,,,,,,,,
CalCOFI,2007SR,043,45,2007_043d,21-Jul-2020 03:42:42,20-Jul-2020 19:42:42,32.32284,-121.71328,086.7 080.0,086.7,080.0,20.000,20.142,,17.2557,,17.2866,,17.2712,33.2214,,33.2216,33.2260,,33.2276,33.2246,5.4340,,5.6603,5.6705,4.2418,,6.1852,4.5489,5.1097,236.972,246.8870,248.2926,184.981,414.0549,198.7438,223.5182,0.0493,,0.1550,0.1803,0.0657,,0.0000,,24.0900,,24.0862,,0.7098,83.7405,,8.138,,1.9043E+00,,1.0199E-01,,17.2524,17.2833,0.0809,,98.683,77.080,,,,,,,,,,,,
CalCOFI,2007SR,043,45,2007_043d,21-Jul-2020 03:42:45,20-Jul-2020 19:42:45,32.32284,-121.71328,086.7 080.0,086.7,080.0,21.000,21.149,,17.2999,,17.3020,,17.3010,33.2448,,33.2450,33.2472,,33.2488,33.2469,5.4227,,5.6485,5.6587,4.2418,,6.1852,4.5489,5.1038,236.481,246.3744,247.7755,184.979,412.8540,198.7391,223.2573,0.0459,,0.1151,0.1478,0.0667,,0.0000,,24.0975,,24.0989,,0.7090,83.7580,,8.138,,1.9043E+00,,9.2871E-02,,17.2964,17.2985,0.0847,,98.577,77.113,,,,,,,,,,,,
CalCOFI,2007SR,043,45,2007_043d,21-Jul-2020 03:42:46,20-Jul-2020 19:42:46,32.32284,-121.71328,086.7 080.0,086.7,080.0,22.000,22.156,,17.3345,,17.3353,,17.3349,33.2611,,33.2613,33.2640,,33.2656,33.2635,5.4115,,5.6368,5.6469,4.2405,,6.1821,4.5460,5.0965,235.989,245.8608,247.2575,184.923,411.6506,198.6097,222.9336,0.0471,,0.1291,0.1594,0.0666,,0.0000,,24.1018,,24.1038,,0.7072,83.7935,,8.138,,1.9043E+00,,8.5940E-02,,17.3308,17.3316,0.0885,,98.448,77.147,,,,,,,,,,,,
CalCOFI,2007SR,043,45,2007_043d,21-Jul-2020 03:42:48,20-Jul-2020 19:42:48,32.32286,-121.71328,086.7 080.0,086.7,080.0,23.000,23.163,,17.3338,,17.3323,,17.3331,33.2662,,33.2664,33.2672,,33.2688,33.2676,5.4160,,5.6415,5.6516,4.2424,,6.1867,4.5503,5.1010,236.187,246.0675,247.4660,185.005,412.1349,198.7992,223.1326,0.0453,,0.1080,0.1419,0.0667,,0.0000,,24.1059,,24.1070,,0.7061,83.8171,,8.138,,1.9043E+00,,7.9966E-02,,17.3300,17.3284,0.0924,,98.532,77.179,,,,,,,,,,,,
CalCOFI,2007SR,043,45,2007_043d,21-Jul-2020 03:42:50,20-Jul-2020 19:42:50,32.32284,-121.71328,086.7 080.0,086.7,080.0,24.000,24.170,,17.3272,,17.3280,,17.3276,33.2675,,33.2677,33.2683,,33.2699,33.2688,5.4170,,5.6425,5.6527,4.2428,,6.1876,4.5512,5.1020,236.228,246.1103,247.5091,185.022,412.2352,198.8385,223.1738,0.0470,,0.1280,0.1584,0.0671,,0.0000,,24.1085,,24.1089,,0.7049,83.8422,,8.138,,1.9043E+00,,6.5913E-02,,17.3232,17.3240,0.0962,,98.538,77.180,,,,,,,,,,,,
CalCOFI,2007SR,043,45,2007_043d,21-Jul-2020 03:42:53,20-Jul-2020 19:42:53,32.32284,-121.71328,086.7 080.0,086.7,080.0,25.000,25.178,,17.3235,,17.3234,,17.3235,33.2685,,33.2687,33.2693,,33.2709,33.2698,5.4122,,5.6375,5.6477,4.2437,,6.1898,4.5532,5.1005,236.020,245.8932,247.2901,185.060,411.7264,198.9263,223.1082,0.0437,,0.0892,0.1262,0.0685,,0.0000,,24.1102,,24.1109,,0.7028,83.8874,,8.138,,1.9043E+00,,5.3591E-02,,17.3193,17.3193,0.1001,,98.445,77.190,,,,,,,,,,,,
CalCOFI,2007SR,043,45,2007_043d,21-Jul-2020 03:42:54,20-Jul-2020 19:42:54,32.32286,-121.71328,086.7 080.0,086.7,080.0,26.000,26.185,,17.3119,,17.3097,,17.3108,33.2726,,33.2728,33.2737,,33.2753,33.2741,5.4177,,5.6433,5.6534,4.2452,,6.1934,4.5565,5.1050,236.255,246.1385,247.5376,185.128,412.3012,199.0835,223.3106,0.0443,,0.0963,0.1322,0.0744,,0.0000,,24.1161,,24.1175,,0.7021,83.9006,,8.138,,1.9043E+00,,4.0117E-02,,17.3076,17.3054,0.1039,,98.524,77.200,26,17.313,33.2592,5.641,246.31,0.131,0.036,0.0,0.00,0.22,0.29,0.95
CalCOFI,2007SR,043,45,2007_043d,21-Jul-2020 03:42:56,20-Jul-2020 19:42:56,32.32285,-121.71328,086.7 080.0,086.7,080.0,27.000,27.192,,17.3034,,17.3048,,17.3041,33.2731,,33.2733,33.2735,,33.2751,33.2742,5.4177,,5.6433,5.6534,4.2462,,6.1958,4.5587,5.1061,236.258,246.1416,247.5407,185.169,412.3085,199.1782,223.3595,0.0467,,0.1245,0.1555,0.0922,,0.0000,,24.1186,,24.1186,,0.7030,83.8827,,8.138,,1.9043E+00,,3.2178E-02,,17.2989,17.3003,0.1077,,98.510,77.210,,,,,,,,,,,,
CalCOFI,2007SR,043,45,2007_043d,21-Jul-2020 03:42:59,20-Jul-2020 19:42:59,32.32286,-121.71328,086.7 080.0,086.7,080.0,28.000,28.199,,17.3014,,17.2996,,17.3005,33.2731,,33.2733,33.2740,,33.2756,33.2745,5.4167,,5.6422,5.6524,4.2466,,6.1967,4.5596,5.1060,236.214,246.0957,247.4944,185.187,412.2009,199.2198,223.3571,0.0453,,0.1080,0.1419,0.1262,,0.0000,,24.1191,,24.1202,,0.7023,83.8962,,8.138,,1.9043E+00,,1.8683E-02,,17.2968,17.2950,0.1115,,98.488,77.210,,,,,,,,,,,,
CalCOFI,2007SR,043,45,2007_043d,21-Jul-2020 03:43:01,20-Jul-2020 19:43:01,32.32286,-121.71328,086.7 080.0,086.7,080.0,29.000,29.206,,17.2974,,17.2967,,17.2971,33.2733,,33.2735,33.2741,,33.2757,33.2746,5.4152,,5.6406,5.6508,4.2442,,6.1910,4.5543,5.1026,236.146,246.0247,247.4228,185.080,412.0346,198.9725,223.1977,0.0452,,0.1068,0.1410,0.1496,,0.0000,,24.1202,,24.1210,,0.7020,83.9032,,8.138,,1.9043E+00,,1.6738E-02,,17.2926,17.2919,0.1154,,98.452,77.162,,,,,,,,,,,,
CalCOFI,2007SR,043,45,2007_043d,21-Jul-2020 03:43:02,20-Jul-2020 19:43:02,32.32284,-121.71328,086.7 080.0,086.7,080.0,30.000,30.214,,17.2880,,17.2861,,17.2871,33.2716,,33.2718,33.2722,,33.2738,33.2728,5.4223,,5.6481,5.6582,4.2479,,6.1998,4.5625,5.1104,236.456,246.3483,247.7492,185.244,412.7928,199.3515,223.5504,0.0457,,0.1127,0.1458,0.1727,,0.0000,,24.1212,,24.1221,,0.7014,83.9154,,8.138,,1.9043E+00,,1.1051E-02,,17.2831,17.2811,0.1192,,98.563,77.213,,,,,,,,,,,,
CalCOFI,2007SR,043,45,2007_043d,21-Jul-2020 03:43:04,20-Jul-2020 19:43:04,32.32285,-121.71328,086.7 080.0,086.7,080.0,31.000,31.221,,17.2719,,17.2667,,17.2693,33.2673,,33.2675,33.2670,,33.2686,33.2681,5.4332,,5.6595,5.6697,4.2467,,6.1969,4.5598,5.1148,236.931,246.8442,248.2494,185.190,413.9546,199.2267,223.7381,0.0466,,0.1233,0.1545,0.1884,,0.0000,,24.1218,,24.1228,,0.7020,83.9027,,8.138,,1.9043E+00,,4.6097E-03,,17.2668,17.2615,0.1230,,98.727,77.160,,,,,,,,,,,,
CalCOFI,2007SR,043,45,2007_043d,21-Jul-2020 03:43:06,20-Jul-2020 19:43:06,32.32285,-121.71328,086.7 080.0,086.7,080.0,32.000,32.228,,17.2450,,17.2484,,17.2467,33.2625,,33.2627,33.2639,,33.2655,33.2641,5.4256,,5.6515,5.6617,4.2502,,6.2053,4.5676,5.1147,236.598,246.4966,247.8987,185.343,413.1401,199.5803,223.7395,0.0475,,0.1338,0.1632,0.1939,,0.0000,,24.1245,,24.1248,,0.7013,83.9170,,8.139,,1.9043E+00,,2.0800E-03,,17.2397,17.2431,0.1268,,98.535,77.195,,,,,,,,,,,,
CalCOFI,2007SR,043,45,2007_043d,21-Jul-2020 03:43:10,20-Jul-2020 19:43:10,32.32284,-121.71328,086.7 080.0,086.7,080.0,33.000,33.235,,17.2364,,17.2332,,17.2348,33.2599,,33.2601,33.2599,,33.2615,33.2608,5.4328,,5.6590,5.6692,4.2540,,6.2144,4.5761,5.1227,236.913,246.8254,248.2304,185.507,413.9106,199.9593,224.0949,0.0459,,0.1151,0.1478,0.1834,,0.0000,,24.1246,,24.1254,,0.7027,83.8900,,8.139,,1.9043E+00,,-1.219E-04,,17.2310,17.2277,0.1307,,98.648,77.239,,,,,,,,,,,,
CalCOFI,2007SR,043,45,2007_043d,21-Jul-2020 03:43:11,20-Jul-2020 19:43:11,32.32284,-121.71328,086.7 080.0,086.7,080.0,34.000,34.242,,17.2167,,17.2163,,17.2165,33.2583,,33.2585,33.2592,,33.2608,33.2597,5.4340,,5.6603,5.6705,4.2539,,6.2141,4.5759,5.1232,236.964,246.8786,248.2841,185.502,414.0353,199.9477,224.1159,0.0449,,0.1033,0.1380,0.1698,,0.0000,,24.1280,,24.1289,,0.7033,83.8773,,8.139,,1.9043E+00,,1.0000E-12,,17.2111,17.2107,0.1345,,98.632,77.212,,,,,,,,,,,,
CalCOFI,2007SR,043,45,2007_043d,21-Jul-2020 03:43:12,20-Jul-2020 19:43:12,32.32286,-121.71328,086.7 080.0,086.7,080.0,35.000,35.250,,17.2179,,17.2178,,17.2179,33.2613,,33.2615,33.2622,,33.2638,33.2627,5.4319,,5.6581,5.6683,4.2542,,6.2149,4.5765,5.1224,236.872,246.7826,248.1873,185.517,413.8103,199.9824,224.0849,0.0466,,0.1233,0.1545,0.1511,,0.0000,,24.1301,,24.1308,,0.7030,83.8822,,8.138,,1.9043E+00,,1.0000E-12,,17.2122,17.2121,0.1383,,98.598,77.222,,,,,,,,,,,,
CalCOFI,2007SR,043,45,2007_043d,21-Jul-2020 03:43:14,20-Jul-2020 19:43:14,32.32286,-121.71328,086.7 080.0,086.7,080.0,36.000,36.257,,17.2207,,17.2207,,17.2207,33.2640,,33.2642,33.2653,,33.2669,33.2656,5.4330,,5.6592,5.6694,4.2544,,6.2153,4.5770,5.1232,236.922,246.8348,248.2399,185.525,413.9326,200.0009,224.1204,0.0480,,0.1397,0.1680,0.1235,,0.0000,,24.1315,,24.1326,,0.7023,83.8968,,8.137,,1.9043E+00,,1.0000E-12,,17.2148,17.2147,0.1421,,98.626,77.231,,,,,,,,,,,,
CalCOFI,2007SR,043,45,2007_043d,21-Jul-2020 03:43:17,20-Jul-2020 19:43:17,32.32284,-121.71328,086.7 080.0,086.7,080.0,37.000,37.264,,17.2232,,17.2234,,17.2233,33.2645,,33.2647,33.2650,,33.2666,33.2657,5.4336,,5.6599,5.6701,4.2547,,6.2160,4.5776,5.1239,236.946,246.8598,248.2652,185.538,413.9913,200.0309,224.1481,0.0480,,0.1397,0.1680,0.0803,,0.0000,,24.1314,,24.1317,,0.7014,83.9152,,8.138,,1.9043E+00,,1.0000E-12,,17.2171,17.2173,0.1459,,98.641,77.240,,,,,,,,,,,,
CalCOFI,2007SR,043,45,2007_043d,21-Jul-2020 03:43:19,20-Jul-2020 19:43:19,32.32284,-121.71328,086.7 080.0,086.7,080.0,38.000,38.271,,17.2213,,17.2210,,17.2212,33.2691,,33.2693,33.2703,,33.2719,33.2706,5.4356,,5.6620,5.6722,4.2553,,6.2175,4.5790,5.1256,237.031,246.9486,248.3547,185.564,414.1992,200.0910,224.2229,0.0458,,0.1139,0.1468,0.0712,,0.0000,,24.1354,,24.1364,,0.7021,83.9007,,8.138,,1.9043E+00,,1.0000E-12,,17.2151,17.2147,0.1497,,98.676,77.250,,,,,,,,,,,,
CalCOFI,2007SR,043,45,2007_043d,21-Jul-2020 03:43:20,20-Jul-2020 19:43:20,32.32285,-121.71328,086.7 080.0,086.7,080.0,39.000,39.278,,17.2167,,17.2158,,17.2163,33.2727,,33.2729,33.2734,,33.2750,33.2740,5.4373,,5.6637,5.6739,4.2562,,6.2196,4.5810,5.1275,237.106,247.0269,248.4337,185.602,414.3826,200.1788,224.3063,0.0457,,0.1127,0.1458,0.0676,,0.0000,,24.1393,,24.1401,,0.7010,83.9242,,8.138,,1.9043E+00,,1.0000E-12,,17.2103,17.2093,0.1535,,98.701,77.260,,,,,,,,,,,,
CalCOFI,2007SR,043,45,2007_043d,21-Jul-2020 03:43:22,20-Jul-2020 19:43:22,32.32286,-121.71328,086.7 080.0,086.7,080.0,40.000,40.286,,17.2129,,17.2132,,17.2131,33.2728,,33.2730,33.2736,,33.2752,33.2741,5.4342,,5.6605,5.6707,4.2568,,6.2211,4.5823,5.1265,236.972,246.8870,248.2926,185.628,414.0549,200.2389,224.2658,0.0477,,0.1362,0.1651,0.0666,,0.0000,,24.1403,,24.1408,,0.7032,83.8793,,8.137,,1.9043E+00,,1.0000E-12,,17.2063,17.2065,0.1573,,98.638,77.267,40,17.173,33.2762,,247.03,0.204,0.011,0.0,0.00,0.13,0.28,0.95
CalCOFI,2007SR,043,45,2007_043d,21-Jul-2020 03:43:25,20-Jul-2020 19:43:25,32.32284,-121.71328,086.7 080.0,086.7,080.0,41.000,41.293,,17.2121,,17.2139,,17.2130,33.2737,,33.2739,33.2737,,33.2753,33.2746,5.4341,,5.6604,5.6706,4.2538,,6.2139,4.5756,5.1231,236.967,246.8818,248.2873,185.496,414.0426,199.9338,224.1106,0.0496,,0.1585,0.1831,0.0656,,0.0000,,24.1412,,24.1408,,0.7042,83.8581,,8.137,,1.9043E+00,,1.0000E-12,,17.2053,17.2071,0.1611,,98.635,77.213,,,,,,,,,,,,
CalCOFI,2007SR,043,45,2007_043d,21-Jul-2020 03:43:27,20-Jul-2020 19:43:27,32.32284,-121.71328,086.7 080.0,086.7,080.0,42.000,42.300,,17.2082,,17.2079,,17.2081,33.2801,,33.2803,33.2816,,33.2832,33.2818,5.4365,,5.6629,5.6731,4.2545,,6.2156,4.5772,5.1252,237.068,246.9872,248.3937,185.525,414.2897,200.0009,224.1973,0.0494,,0.1562,0.1812,0.0648,,0.0000,,24.1471,,24.1483,,0.7036,83.8712,,8.136,,1.9043E+00,,1.0000E-12,,17.2012,17.2009,0.1650,,98.674,77.221,,,,,,,,,,,,
CalCOFI,2007SR,043,45,2007_043d,21-Jul-2020 03:43:29,20-Jul-2020 19:43:29,32.32284,-121.71328,086.7 080.0,086.7,080.0,43.000,43.307,,17.2113,,17.2113,,17.2113,33.2865,,33.2867,33.2877,,33.2893,33.2880,5.4556,,5.6829,5.6931,4.2547,,6.2160,4.5776,5.1354,237.900,247.8557,249.2698,185.533,416.3246,200.0193,224.6446,0.0490,,0.1515,0.1774,0.0644,,0.0000,,24.1513,,24.1522,,0.7034,83.8753,,8.136,,1.9043E+00,,1.0000E-12,,17.2042,17.2042,0.1688,,99.030,77.232,,,,,,,,,,,,
CalCOFI,2007SR,043,45,2007_043d,21-Jul-2020 03:43:30,20-Jul-2020 19:43:30,32.32285,-121.71328,086.7 080.0,086.7,080.0,44.000,44.315,,17.1994,,17.1967,,17.1981,33.2916,,33.2918,33.2921,,33.2937,33.2928,5.4586,,5.6860,5.6963,4.2563,,6.2199,4.5812,5.1388,238.029,247.9904,249.4056,185.604,416.6401,200.1834,224.7945,0.0548,,0.2196,0.2308,0.0640,,0.0000,,24.1581,,24.1591,,0.7085,83.7680,,8.138,,1.9043E+00,,1.0000E-12,,17.1921,17.1894,0.1726,,99.065,77.243,,,,,,,,,,,,
CalCOFI,2007SR,043,45,2007_043d,21-Jul-2020 03:43:32,20-Jul-2020 19:43:32,32.32286,-121.71328,086.7 080.0,086.7,080.0,45.000,45.322,,17.1646,,17.1741,,17.1694,33.2908,,33.2910,33.2872,,33.2888,33.2899,5.4649,,5.6926,5.7028,4.2617,,6.2328,4.5932,5.1480,238.304,248.2774,249.6952,185.836,417.3128,200.7195,225.2074,0.0677,,0.3712,0.3395,0.0629,,0.0000,,24.1657,,24.1608,,0.7136,83.6605,,8.139,,1.9043E+00,,1.0000E-12,,17.1572,17.1667,0.1763,,99.113,77.304,,,,,,,,,,,,
CalCOFI,2007SR,043,45,2007_043d,21-Jul-2020 03:43:36,20-Jul-2020 19:43:36,32.32284,-121.71328,086.7 080.0,086.7,080.0,46.000,46.329,,16.8913,,16.8946,,16.8930,33.2527,,33.2529,33.2552,,33.2568,33.2549,5.5398,,5.7708,5.7813,4.2885,,6.2967,4.6528,5.2171,241.560,251.6764,253.1238,186.999,425.2765,203.4070,228.2654,0.0692,,0.3889,0.3513,0.0613,,0.0000,,24.2007,,24.2019,,0.7299,83.3196,,8.140,,1.9043E+00,,1.0000E-12,,16.8838,16.8871,0.1801,,99.920,77.357,,,,,,,,,,,,
CalCOFI,2007SR,043,45,2007_043d,21-Jul-2020 03:43:37,20-Jul-2020 19:43:37,32.32285,-121.71328,086.7 080.0,086.7,080.0,47.000,47.336,,16.7671,,16.7674,,16.7673,33.2585,,33.2587,33.2626,,33.2642,33.2615,5.5451,,5.7764,5.7868,4.2996,,6.3232,4.6775,5.2322,241.784,251.9102,253.3596,187.477,425.8243,204.5116,228.9356,0.0661,,0.3524,0.3268,0.0604,,0.0000,,24.2342,,24.2373,,0.7232,83.4612,,8.140,,1.9043E+00,,1.0000E-12,,16.7595,16.7598,0.1838,,99.779,77.371,,,,,,,,,,,,
CalCOFI,2007SR,043,45,2007_043d,21-Jul-2020 03:43:38,20-Jul-2020 19:43:38,32.32286,-121.71328,086.7 080.0,086.7,080.0,48.000,48.344,,16.8313,,16.8378,,16.8346,33.2893,,33.2895,33.2931,,33.2947,33.2921,5.5457,,5.7770,5.7875,4.2932,,6.3080,4.6633,5.2254,241.807,251.9342,253.3839,187.197,425.8806,203.8646,228.6243,0.0610,,0.2925,0.2848,0.0597,,0.0000,,24.2429,,24.2443,,0.7136,83.6606,,8.140,,1.9043E+00,,1.0000E-12,,16.8235,16.8300,0.1875,,99.932,77.375,,,,,,,,,,,,
CalCOFI,2007SR,043,45,2007_043d,21-Jul-2020 03:43:40,20-Jul-2020 19:43:40,32.32286,-121.71328,086.7 080.0,086.7,080.0,49.000,49.351,,16.8046,,16.8107,,16.8077,33.3064,,33.3066,33.3046,,33.3062,33.3064,5.5392,,5.7702,5.7807,4.2960,,6.3146,4.6695,5.2251,241.519,251.6336,253.0806,187.315,425.1762,204.1373,228.6090,0.0628,,0.3136,0.2998,0.0590,,0.0000,,24.2624,,24.2595,,0.7096,83.7447,,8.140,,1.9043E+00,,1.0000E-12,,16.7966,16.8027,0.1913,,99.774,77.390,,,,,,,,,,,,
CalCOFI,2007SR,043,45,2007_043d,21-Jul-2020 03:43:43,20-Jul-2020 19:43:43,32.32284,-121.71328,086.7 080.0,086.7,080.0,50.000,50.358,,16.8047,,16.8175,,16.8111,33.3013,,33.3015,33.2966,,33.2982,33.2999,5.5447,,5.7760,5.7864,4.3084,,6.3442,4.6971,5.2418,241.764,251.8893,253.3386,187.857,425.7754,205.3898,229.3642,0.0673,,0.3665,0.3364,0.0573,,0.0000,,24.2584,,24.2518,,0.7122,83.6891,,8.140,,1.9043E+00,,1.0000E-12,,16.7966,16.8094,0.1950,,99.872,77.619,50,16.665,33.2977,,253.06,0.300,0.137,0.0,0.00,0.05,0.27,1.02
CalCOFI,2007SR,043,45,2007_043d,21-Jul-2020 03:43:45,20-Jul-2020 19:43:45,32.32284,-121.71328,086.7 080.0,086.7,080.0,51.000,51.366,,16.5321,,16.5293,,16.5307,33.2591,,33.2593,33.2585,,33.2601,33.2597,5.6239,,5.8587,5.8694,4.3388,,6.4168,4.7647,5.3171,245.208,255.4845,256.9651,189.174,434.1990,208.4331,232.6991,0.0759,,0.4677,0.4015,0.0558,,0.0000,,24.2892,,24.2894,,0.7236,83.4528,,8.141,,1.9043E+00,,1.0000E-12,,16.5239,16.5211,0.1986,,100.737,77.712,,,,,,,,,,,,